owner,sensor,date,latitude,longitude,air_pressure(mBar),qcFlag 
WAVCIS,ioos:station:WAVCIS:CSI06:1,2016-02-01T00:00:00Z,28.8667,-90.4833,1013.54,11111222 
WAVCIS,ioos:station:WAVCIS:CSI06:1,2016-02-01T01:00:00Z,28.8667,-90.4833,1013.72,11111222 
WAVCIS,ioos:station:WAVCIS:CSI06:1,2016-02-01T02:00:00Z,28.8667,-90.4833,1014.13,11111222 
WAVCIS,ioos:station:WAVCIS:CSI06:1,2016-02-01T03:00:00Z,28.8667,-90.4833,1014.13,11111222 
WAVCIS,ioos:station:WAVCIS:CSI06:1,2016-02-01T04:00:00Z,28.8667,-90.4833,1014.47,11111222 
WAVCIS,ioos:station:WAVCIS:CSI06:1,2016-02-01T05:00:00Z,28.8667,-90.4833,1014.34,11111222 
WAVCIS,ioos:station:WAVCIS:CSI06:1,2016-02-01T06:00:00Z,28.8667,-90.4833,1013.96,11111222 
WAVCIS,ioos:station:WAVCIS:CSI06:1,2016-02-01T07:00:00Z,28.8667,-90.4833,1013.8,11111222 
WAVCIS,ioos:station:WAVCIS:CSI06:1,2016-02-01T08:00:00Z,28.8667,-90.4833,1013.67,11111222 
WAVCIS,ioos:station:WAVCIS:CSI06:1,2016-02-01T09:00:00Z,28.8667,-90.4833,1013.38,11111222 
WAVCIS,ioos:station:WAVCIS:CSI06:1,2016-02-01T10:00:00Z,28.8667,-90.4833,1013.48,11111222 
WAVCIS,ioos:station:WAVCIS:CSI06:1,2016-02-01T11:00:00Z,28.8667,-90.4833,1013.78,11111222 
WAVCIS,ioos:station:WAVCIS:CSI06:1,2016-02-01T12:00:00Z,28.8667,-90.4833,1014.37,11111222 
WAVCIS,ioos:station:WAVCIS:CSI06:1,2016-02-01T13:00:00Z,28.8667,-90.4833,1014.91,11111222 
WAVCIS,ioos:station:WAVCIS:CSI06:1,2016-02-01T14:00:00Z,28.8667,-90.4833,1015.18,11111222 
WAVCIS,ioos:station:WAVCIS:CSI06:1,2016-02-01T15:00:00Z,28.8667,-90.4833,1016.84,11111222 
WAVCIS,ioos:station:WAVCIS:CSI06:1,2016-02-01T16:00:00Z,28.8667,-90.4833,1016.48,11111222 
WAVCIS,ioos:station:WAVCIS:CSI06:1,2016-02-01T17:00:00Z,28.8667,-90.4833,1016.11,11111222 
WAVCIS,ioos:station:WAVCIS:CSI06:1,2016-02-01T18:00:00Z,28.8667,-90.4833,1016.26,11111222 
WAVCIS,ioos:station:WAVCIS:CSI06:1,2016-02-01T19:00:00Z,28.8667,-90.4833,1013.36,11111222 
WAVCIS,ioos:station:WAVCIS:CSI06:1,2016-02-01T20:00:00Z,28.8667,-90.4833,1012.21,11111222 
WAVCIS,ioos:station:WAVCIS:CSI06:1,2016-02-01T21:00:00Z,28.8667,-90.4833,1011.55,11111222 
WAVCIS,ioos:station:WAVCIS:CSI06:1,2016-02-01T22:00:00Z,28.8667,-90.4833,1011.38,11111222 
WAVCIS,ioos:station:WAVCIS:CSI06:1,2016-02-01T23:00:00Z,28.8667,-90.4833,1011.06,11111222 
WAVCIS,ioos:station:WAVCIS:CSI06:1,2016-02-02T00:00:00Z,28.8667,-90.4833,1010.93,11111222 
WAVCIS,ioos:station:WAVCIS:CSI06:1,2016-02-02T01:00:00Z,28.8667,-90.4833,1010.95,11111222 
WAVCIS,ioos:station:WAVCIS:CSI06:1,2016-02-02T02:00:00Z,28.8667,-90.4833,1010.63,11111222 
WAVCIS,ioos:station:WAVCIS:CSI06:1,2016-02-02T03:00:00Z,28.8667,-90.4833,1010.76,11111222 
WAVCIS,ioos:station:WAVCIS:CSI06:1,2016-02-02T04:00:00Z,28.8667,-90.4833,1010.92,11111222 
WAVCIS,ioos:station:WAVCIS:CSI06:1,2016-02-02T05:00:00Z,28.8667,-90.4833,1010.67,11111222 
WAVCIS,ioos:station:WAVCIS:CSI06:1,2016-02-02T06:00:00Z,28.8667,-90.4833,1009.48,11111222 
WAVCIS,ioos:station:WAVCIS:CSI06:1,2016-02-02T07:00:00Z,28.8667,-90.4833,1009.57,11111222 
WAVCIS,ioos:station:WAVCIS:CSI06:1,2016-02-02T08:00:00Z,28.8667,-90.4833,1009.41,11111222 
WAVCIS,ioos:station:WAVCIS:CSI06:1,2016-02-02T09:00:00Z,28.8667,-90.4833,1009.07,11111222 
WAVCIS,ioos:station:WAVCIS:CSI06:1,2016-02-02T10:00:00Z,28.8667,-90.4833,1008.49,11111222 
WAVCIS,ioos:station:WAVCIS:CSI06:1,2016-02-02T11:00:00Z,28.8667,-90.4833,1008.7,11111222 
WAVCIS,ioos:station:WAVCIS:CSI06:1,2016-02-02T12:00:00Z,28.8667,-90.4833,1009.03,11111222 
WAVCIS,ioos:station:WAVCIS:CSI06:1,2016-02-02T13:00:00Z,28.8667,-90.4833,1009.8,11111222 
WAVCIS,ioos:station:WAVCIS:CSI06:1,2016-02-02T14:00:00Z,28.8667,-90.4833,1010.26,11111222 
WAVCIS,ioos:station:WAVCIS:CSI06:1,2016-02-02T15:00:00Z,28.8667,-90.4833,1011.29,11111222 
WAVCIS,ioos:station:WAVCIS:CSI06:1,2016-02-02T16:00:00Z,28.8667,-90.4833,1012.02,11111222 
WAVCIS,ioos:station:WAVCIS:CSI06:1,2016-02-02T17:00:00Z,28.8667,-90.4833,1011.6,11111222 
WAVCIS,ioos:station:WAVCIS:CSI06:1,2016-02-02T18:00:00Z,28.8667,-90.4833,1010.52,11111222 
WAVCIS,ioos:station:WAVCIS:CSI06:1,2016-02-02T19:00:00Z,28.8667,-90.4833,1009.38,11111222 
WAVCIS,ioos:station:WAVCIS:CSI06:1,2016-02-02T20:00:00Z,28.8667,-90.4833,1009.14,11111222 
WAVCIS,ioos:station:WAVCIS:CSI06:1,2016-02-02T21:00:00Z,28.8667,-90.4833,1008.9,11111222 
WAVCIS,ioos:station:WAVCIS:CSI06:1,2016-02-02T22:00:00Z,28.8667,-90.4833,1009.24,11111222 
WAVCIS,ioos:station:WAVCIS:CSI06:1,2016-02-02T23:00:00Z,28.8667,-90.4833,1009.29,11111222 
WAVCIS,ioos:station:WAVCIS:CSI06:1,2016-02-03T00:00:00Z,28.8667,-90.4833,1009.36,11111222 
WAVCIS,ioos:station:WAVCIS:CSI06:1,2016-02-03T01:00:00Z,28.8667,-90.4833,1010.0,11111222 
WAVCIS,ioos:station:WAVCIS:CSI06:1,2016-02-03T02:00:00Z,28.8667,-90.4833,1010.54,11111222 
WAVCIS,ioos:station:WAVCIS:CSI06:1,2016-02-03T03:00:00Z,28.8667,-90.4833,1010.97,11111222 
WAVCIS,ioos:station:WAVCIS:CSI06:1,2016-02-03T04:00:00Z,28.8667,-90.4833,1010.73,11111222 
WAVCIS,ioos:station:WAVCIS:CSI06:1,2016-02-03T05:00:00Z,28.8667,-90.4833,1010.24,11111222 
WAVCIS,ioos:station:WAVCIS:CSI06:1,2016-02-03T06:00:00Z,28.8667,-90.4833,1010.71,11111222 
WAVCIS,ioos:station:WAVCIS:CSI06:1,2016-02-03T07:00:00Z,28.8667,-90.4833,1010.17,11111222 
WAVCIS,ioos:station:WAVCIS:CSI06:1,2016-02-03T08:00:00Z,28.8667,-90.4833,1009.88,11111222 
WAVCIS,ioos:station:WAVCIS:CSI06:1,2016-02-03T09:00:00Z,28.8667,-90.4833,1010.02,11111222 
WAVCIS,ioos:station:WAVCIS:CSI06:1,2016-02-03T10:00:00Z,28.8667,-90.4833,1010.5,11111222 
WAVCIS,ioos:station:WAVCIS:CSI06:1,2016-02-03T11:00:00Z,28.8667,-90.4833,1011.34,11111222 
WAVCIS,ioos:station:WAVCIS:CSI06:1,2016-02-03T12:00:00Z,28.8667,-90.4833,1012.58,11111222 
WAVCIS,ioos:station:WAVCIS:CSI06:1,2016-02-03T13:00:00Z,28.8667,-90.4833,1013.23,11111222 
WAVCIS,ioos:station:WAVCIS:CSI06:1,2016-02-03T14:00:00Z,28.8667,-90.4833,1014.02,11111222 
WAVCIS,ioos:station:WAVCIS:CSI06:1,2016-02-03T15:00:00Z,28.8667,-90.4833,1015.28,11111222 
WAVCIS,ioos:station:WAVCIS:CSI06:1,2016-02-03T16:00:00Z,28.8667,-90.4833,1016.0,11111222 
WAVCIS,ioos:station:WAVCIS:CSI06:1,2016-02-03T17:00:00Z,28.8667,-90.4833,1016.54,11111222 
WAVCIS,ioos:station:WAVCIS:CSI06:1,2016-02-03T18:00:00Z,28.8667,-90.4833,1016.43,11111222 
WAVCIS,ioos:station:WAVCIS:CSI06:1,2016-02-03T19:00:00Z,28.8667,-90.4833,1016.26,11111222 
WAVCIS,ioos:station:WAVCIS:CSI06:1,2016-02-03T20:00:00Z,28.8667,-90.4833,1015.99,11111222 
WAVCIS,ioos:station:WAVCIS:CSI06:1,2016-02-03T21:00:00Z,28.8667,-90.4833,1016.28,11111222 
WAVCIS,ioos:station:WAVCIS:CSI06:1,2016-02-03T22:00:00Z,28.8667,-90.4833,1016.45,11111222 
WAVCIS,ioos:station:WAVCIS:CSI06:1,2016-02-03T23:00:00Z,28.8667,-90.4833,1017.37,11111222 
WAVCIS,ioos:station:WAVCIS:CSI06:1,2016-02-04T00:00:00Z,28.8667,-90.4833,1018.43,11111222 
WAVCIS,ioos:station:WAVCIS:CSI06:1,2016-02-04T01:00:00Z,28.8667,-90.4833,1019.19,11111222 
WAVCIS,ioos:station:WAVCIS:CSI06:1,2016-02-04T02:00:00Z,28.8667,-90.4833,1019.78,11111222 
WAVCIS,ioos:station:WAVCIS:CSI06:1,2016-02-04T03:00:00Z,28.8667,-90.4833,1019.97,11111222 
WAVCIS,ioos:station:WAVCIS:CSI06:1,2016-02-04T04:00:00Z,28.8667,-90.4833,1020.23,11111222 
WAVCIS,ioos:station:WAVCIS:CSI06:1,2016-02-04T05:00:00Z,28.8667,-90.4833,1020.76,11111222 
WAVCIS,ioos:station:WAVCIS:CSI06:1,2016-02-04T06:00:00Z,28.8667,-90.4833,1020.82,11111222 
WAVCIS,ioos:station:WAVCIS:CSI06:1,2016-02-04T07:00:00Z,28.8667,-90.4833,1021.59,11111222 
WAVCIS,ioos:station:WAVCIS:CSI06:1,2016-02-04T08:00:00Z,28.8667,-90.4833,1021.73,11111222 
WAVCIS,ioos:station:WAVCIS:CSI06:1,2016-02-04T09:00:00Z,28.8667,-90.4833,1022.36,11111222 
WAVCIS,ioos:station:WAVCIS:CSI06:1,2016-02-04T10:00:00Z,28.8667,-90.4833,1022.44,11111222 
WAVCIS,ioos:station:WAVCIS:CSI06:1,2016-02-04T11:00:00Z,28.8667,-90.4833,1022.7,11111222 
WAVCIS,ioos:station:WAVCIS:CSI06:1,2016-02-04T12:00:00Z,28.8667,-90.4833,1023.51,11111222 
WAVCIS,ioos:station:WAVCIS:CSI06:1,2016-02-04T13:00:00Z,28.8667,-90.4833,1024.59,11111222 
WAVCIS,ioos:station:WAVCIS:CSI06:1,2016-02-04T14:00:00Z,28.8667,-90.4833,1025.86,11111222 
WAVCIS,ioos:station:WAVCIS:CSI06:1,2016-02-04T15:00:00Z,28.8667,-90.4833,1026.67,11111222 
WAVCIS,ioos:station:WAVCIS:CSI06:1,2016-02-04T16:00:00Z,28.8667,-90.4833,1027.09,11111222 
WAVCIS,ioos:station:WAVCIS:CSI06:1,2016-02-04T17:00:00Z,28.8667,-90.4833,1027.56,11111222 
WAVCIS,ioos:station:WAVCIS:CSI06:1,2016-02-04T18:00:00Z,28.8667,-90.4833,1027.18,11111222 
WAVCIS,ioos:station:WAVCIS:CSI06:1,2016-02-04T19:00:00Z,28.8667,-90.4833,1026.25,11111222 
WAVCIS,ioos:station:WAVCIS:CSI06:1,2016-02-04T20:00:00Z,28.8667,-90.4833,1025.71,11111222 
WAVCIS,ioos:station:WAVCIS:CSI06:1,2016-02-04T21:00:00Z,28.8667,-90.4833,1025.71,11111222 
WAVCIS,ioos:station:WAVCIS:CSI06:1,2016-02-04T22:00:00Z,28.8667,-90.4833,1026.32,11111222 
WAVCIS,ioos:station:WAVCIS:CSI06:1,2016-02-04T23:00:00Z,28.8667,-90.4833,1026.94,11111222 
WAVCIS,ioos:station:WAVCIS:CSI06:1,2016-02-05T00:00:00Z,28.8667,-90.4833,1027.63,11111222 
WAVCIS,ioos:station:WAVCIS:CSI06:1,2016-02-05T01:00:00Z,28.8667,-90.4833,1028.21,11111222 
WAVCIS,ioos:station:WAVCIS:CSI06:1,2016-02-05T02:00:00Z,28.8667,-90.4833,1028.86,11111222 
WAVCIS,ioos:station:WAVCIS:CSI06:1,2016-02-05T03:00:00Z,28.8667,-90.4833,1029.4,11111222 
WAVCIS,ioos:station:WAVCIS:CSI06:1,2016-02-05T04:00:00Z,28.8667,-90.4833,1029.95,11111222 
WAVCIS,ioos:station:WAVCIS:CSI06:1,2016-02-05T05:00:00Z,28.8667,-90.4833,1030.29,11111222 
WAVCIS,ioos:station:WAVCIS:CSI06:1,2016-02-05T06:00:00Z,28.8667,-90.4833,1030.53,11111222 
WAVCIS,ioos:station:WAVCIS:CSI06:1,2016-02-05T07:00:00Z,28.8667,-90.4833,1030.79,11111222 
WAVCIS,ioos:station:WAVCIS:CSI06:1,2016-02-05T08:00:00Z,28.8667,-90.4833,1030.89,11111222 
WAVCIS,ioos:station:WAVCIS:CSI06:1,2016-02-05T09:00:00Z,28.8667,-90.4833,1030.76,11111222 
WAVCIS,ioos:station:WAVCIS:CSI06:1,2016-02-05T10:00:00Z,28.8667,-90.4833,1030.61,11111222 
WAVCIS,ioos:station:WAVCIS:CSI06:1,2016-02-05T11:00:00Z,28.8667,-90.4833,1030.74,11111222 
WAVCIS,ioos:station:WAVCIS:CSI06:1,2016-02-05T12:00:00Z,28.8667,-90.4833,1031.73,11111222 
WAVCIS,ioos:station:WAVCIS:CSI06:1,2016-02-05T13:00:00Z,28.8667,-90.4833,1032.53,11111222 
WAVCIS,ioos:station:WAVCIS:CSI06:1,2016-02-05T14:00:00Z,28.8667,-90.4833,1032.88,11111222 
WAVCIS,ioos:station:WAVCIS:CSI06:1,2016-02-05T15:00:00Z,28.8667,-90.4833,1032.98,11111222 
WAVCIS,ioos:station:WAVCIS:CSI06:1,2016-02-05T16:00:00Z,28.8667,-90.4833,1033.33,11111222 
WAVCIS,ioos:station:WAVCIS:CSI06:1,2016-02-05T17:00:00Z,28.8667,-90.4833,1033.04,11111222 
WAVCIS,ioos:station:WAVCIS:CSI06:1,2016-02-05T18:00:00Z,28.8667,-90.4833,1032.3,11111222 
WAVCIS,ioos:station:WAVCIS:CSI06:1,2016-02-05T19:00:00Z,28.8667,-90.4833,1031.17,11111222 
WAVCIS,ioos:station:WAVCIS:CSI06:1,2016-02-05T20:00:00Z,28.8667,-90.4833,1030.73,11111222 
WAVCIS,ioos:station:WAVCIS:CSI06:1,2016-02-05T21:00:00Z,28.8667,-90.4833,1030.18,11111222 
WAVCIS,ioos:station:WAVCIS:CSI06:1,2016-02-05T22:00:00Z,28.8667,-90.4833,1029.56,11111222 
WAVCIS,ioos:station:WAVCIS:CSI06:1,2016-02-05T23:00:00Z,28.8667,-90.4833,1028.9,11111222 
WAVCIS,ioos:station:WAVCIS:CSI06:1,2016-02-06T00:00:00Z,28.8667,-90.4833,1028.69,11111222 
WAVCIS,ioos:station:WAVCIS:CSI06:1,2016-02-06T01:00:00Z,28.8667,-90.4833,1028.71,11111222 
WAVCIS,ioos:station:WAVCIS:CSI06:1,2016-02-06T02:00:00Z,28.8667,-90.4833,1028.87,11111222 
WAVCIS,ioos:station:WAVCIS:CSI06:1,2016-02-06T03:00:00Z,28.8667,-90.4833,1029.22,11111222 
WAVCIS,ioos:station:WAVCIS:CSI06:1,2016-02-06T04:00:00Z,28.8667,-90.4833,1028.73,11111222 
WAVCIS,ioos:station:WAVCIS:CSI06:1,2016-02-06T05:00:00Z,28.8667,-90.4833,1029.23,11111222 
WAVCIS,ioos:station:WAVCIS:CSI06:1,2016-02-06T06:00:00Z,28.8667,-90.4833,1029.11,11111222 
WAVCIS,ioos:station:WAVCIS:CSI06:1,2016-02-06T07:00:00Z,28.8667,-90.4833,1029.11,11111222 
WAVCIS,ioos:station:WAVCIS:CSI06:1,2016-02-06T08:00:00Z,28.8667,-90.4833,1028.68,11111222 
WAVCIS,ioos:station:WAVCIS:CSI06:1,2016-02-06T09:00:00Z,28.8667,-90.4833,1028.26,11111222 
WAVCIS,ioos:station:WAVCIS:CSI06:1,2016-02-06T10:00:00Z,28.8667,-90.4833,1028.0,11111222 
WAVCIS,ioos:station:WAVCIS:CSI06:1,2016-02-06T11:00:00Z,28.8667,-90.4833,1027.51,11111222 
WAVCIS,ioos:station:WAVCIS:CSI06:1,2016-02-06T12:00:00Z,28.8667,-90.4833,1026.33,11111222 
WAVCIS,ioos:station:WAVCIS:CSI06:1,2016-02-06T13:00:00Z,28.8667,-90.4833,1027.19,11111222 
WAVCIS,ioos:station:WAVCIS:CSI06:1,2016-02-06T14:00:00Z,28.8667,-90.4833,1026.67,11111222 
WAVCIS,ioos:station:WAVCIS:CSI06:1,2016-02-06T15:00:00Z,28.8667,-90.4833,1026.77,11111222 
WAVCIS,ioos:station:WAVCIS:CSI06:1,2016-02-06T16:00:00Z,28.8667,-90.4833,1027.76,11111222 
WAVCIS,ioos:station:WAVCIS:CSI06:1,2016-02-06T17:00:00Z,28.8667,-90.4833,1027.52,11111222 
WAVCIS,ioos:station:WAVCIS:CSI06:1,2016-02-06T18:00:00Z,28.8667,-90.4833,1026.5,11111222 
WAVCIS,ioos:station:WAVCIS:CSI06:1,2016-02-06T19:00:00Z,28.8667,-90.4833,1026.0,11111222 
WAVCIS,ioos:station:WAVCIS:CSI06:1,2016-02-06T20:00:00Z,28.8667,-90.4833,1024.99,11111222 
WAVCIS,ioos:station:WAVCIS:CSI06:1,2016-02-06T21:00:00Z,28.8667,-90.4833,1024.4,11111222 
WAVCIS,ioos:station:WAVCIS:CSI06:1,2016-02-06T22:00:00Z,28.8667,-90.4833,1024.31,11111222 
WAVCIS,ioos:station:WAVCIS:CSI06:1,2016-02-06T23:00:00Z,28.8667,-90.4833,1025.05,11111222 
WAVCIS,ioos:station:WAVCIS:CSI06:1,2016-02-07T00:00:00Z,28.8667,-90.4833,1024.72,11111222 
WAVCIS,ioos:station:WAVCIS:CSI06:1,2016-02-07T01:00:00Z,28.8667,-90.4833,1024.77,11111222 
WAVCIS,ioos:station:WAVCIS:CSI06:1,2016-02-07T02:00:00Z,28.8667,-90.4833,1025.83,11111222 
WAVCIS,ioos:station:WAVCIS:CSI06:1,2016-02-07T03:00:00Z,28.8667,-90.4833,1026.21,11111222 
WAVCIS,ioos:station:WAVCIS:CSI06:1,2016-02-07T04:00:00Z,28.8667,-90.4833,1026.18,11111222 
WAVCIS,ioos:station:WAVCIS:CSI06:1,2016-02-07T05:00:00Z,28.8667,-90.4833,1026.14,11111222 
WAVCIS,ioos:station:WAVCIS:CSI06:1,2016-02-07T06:00:00Z,28.8667,-90.4833,1026.11,11111222 
WAVCIS,ioos:station:WAVCIS:CSI06:1,2016-02-07T07:00:00Z,28.8667,-90.4833,1025.47,11111222 
WAVCIS,ioos:station:WAVCIS:CSI06:1,2016-02-07T08:00:00Z,28.8667,-90.4833,1025.17,11111222 
WAVCIS,ioos:station:WAVCIS:CSI06:1,2016-02-07T09:00:00Z,28.8667,-90.4833,1025.39,11111222 
WAVCIS,ioos:station:WAVCIS:CSI06:1,2016-02-07T10:00:00Z,28.8667,-90.4833,1025.62,11111222 
WAVCIS,ioos:station:WAVCIS:CSI06:1,2016-02-07T11:00:00Z,28.8667,-90.4833,1025.89,11111222 
WAVCIS,ioos:station:WAVCIS:CSI06:1,2016-02-07T12:00:00Z,28.8667,-90.4833,1026.07,11111222 
WAVCIS,ioos:station:WAVCIS:CSI06:1,2016-02-07T13:00:00Z,28.8667,-90.4833,1026.79,11111222 
WAVCIS,ioos:station:WAVCIS:CSI06:1,2016-02-07T14:00:00Z,28.8667,-90.4833,1026.52,11111222 
WAVCIS,ioos:station:WAVCIS:CSI06:1,2016-02-07T15:00:00Z,28.8667,-90.4833,1026.55,11111222 
WAVCIS,ioos:station:WAVCIS:CSI06:1,2016-02-07T16:00:00Z,28.8667,-90.4833,1026.54,11111222 
WAVCIS,ioos:station:WAVCIS:CSI06:1,2016-02-07T17:00:00Z,28.8667,-90.4833,1026.68,11111222 
WAVCIS,ioos:station:WAVCIS:CSI06:1,2016-02-07T18:00:00Z,28.8667,-90.4833,1025.96,11111222 
WAVCIS,ioos:station:WAVCIS:CSI06:1,2016-02-07T19:00:00Z,28.8667,-90.4833,1024.74,11111222 
WAVCIS,ioos:station:WAVCIS:CSI06:1,2016-02-07T20:00:00Z,28.8667,-90.4833,1023.87,11111222 
WAVCIS,ioos:station:WAVCIS:CSI06:1,2016-02-07T21:00:00Z,28.8667,-90.4833,1023.38,11111222 
WAVCIS,ioos:station:WAVCIS:CSI06:1,2016-02-07T22:00:00Z,28.8667,-90.4833,1022.81,11111222 
WAVCIS,ioos:station:WAVCIS:CSI06:1,2016-02-07T23:00:00Z,28.8667,-90.4833,1022.43,11111222 
WAVCIS,ioos:station:WAVCIS:CSI06:1,2016-02-08T00:00:00Z,28.8667,-90.4833,1022.62,11111222 
WAVCIS,ioos:station:WAVCIS:CSI06:1,2016-02-08T01:00:00Z,28.8667,-90.4833,1022.97,11111222 
WAVCIS,ioos:station:WAVCIS:CSI06:1,2016-02-08T02:00:00Z,28.8667,-90.4833,1023.12,11111222 
WAVCIS,ioos:station:WAVCIS:CSI06:1,2016-02-08T03:00:00Z,28.8667,-90.4833,1023.13,11111222 
WAVCIS,ioos:station:WAVCIS:CSI06:1,2016-02-08T04:00:00Z,28.8667,-90.4833,1022.95,11111222 
WAVCIS,ioos:station:WAVCIS:CSI06:1,2016-02-08T05:00:00Z,28.8667,-90.4833,1022.45,11111222 
WAVCIS,ioos:station:WAVCIS:CSI06:1,2016-02-08T06:00:00Z,28.8667,-90.4833,1021.67,11111222 
WAVCIS,ioos:station:WAVCIS:CSI06:1,2016-02-08T07:00:00Z,28.8667,-90.4833,1021.28,11111222 
WAVCIS,ioos:station:WAVCIS:CSI06:1,2016-02-08T08:00:00Z,28.8667,-90.4833,1021.37,11111222 
WAVCIS,ioos:station:WAVCIS:CSI06:1,2016-02-08T09:00:00Z,28.8667,-90.4833,1021.02,11111222 
WAVCIS,ioos:station:WAVCIS:CSI06:1,2016-02-08T10:00:00Z,28.8667,-90.4833,1020.76,11111222 
WAVCIS,ioos:station:WAVCIS:CSI06:1,2016-02-08T11:00:00Z,28.8667,-90.4833,1020.41,11111222 
WAVCIS,ioos:station:WAVCIS:CSI06:1,2016-02-08T12:00:00Z,28.8667,-90.4833,1020.72,11111222 
WAVCIS,ioos:station:WAVCIS:CSI06:1,2016-02-08T13:00:00Z,28.8667,-90.4833,1021.29,11111222 
WAVCIS,ioos:station:WAVCIS:CSI06:1,2016-02-08T14:00:00Z,28.8667,-90.4833,1021.91,11111222 
WAVCIS,ioos:station:WAVCIS:CSI06:1,2016-02-08T15:00:00Z,28.8667,-90.4833,1022.02,11111222 
WAVCIS,ioos:station:WAVCIS:CSI06:1,2016-02-08T16:00:00Z,28.8667,-90.4833,1022.27,11111222 
WAVCIS,ioos:station:WAVCIS:CSI06:1,2016-02-08T17:00:00Z,28.8667,-90.4833,1021.92,11111222 
WAVCIS,ioos:station:WAVCIS:CSI06:1,2016-02-08T18:00:00Z,28.8667,-90.4833,1021.13,11111222 
WAVCIS,ioos:station:WAVCIS:CSI06:1,2016-02-08T19:00:00Z,28.8667,-90.4833,1019.7,11111222 
WAVCIS,ioos:station:WAVCIS:CSI06:1,2016-02-08T20:00:00Z,28.8667,-90.4833,1018.89,11111222 
WAVCIS,ioos:station:WAVCIS:CSI06:1,2016-02-08T21:00:00Z,28.8667,-90.4833,1018.47,11111222 
WAVCIS,ioos:station:WAVCIS:CSI06:1,2016-02-08T22:00:00Z,28.8667,-90.4833,1018.12,11111222 
WAVCIS,ioos:station:WAVCIS:CSI06:1,2016-02-08T23:00:00Z,28.8667,-90.4833,1018.26,11111222 
WAVCIS,ioos:station:WAVCIS:CSI06:1,2016-02-09T00:00:00Z,28.8667,-90.4833,1018.66,11111222 
WAVCIS,ioos:station:WAVCIS:CSI06:1,2016-02-09T01:00:00Z,28.8667,-90.4833,1019.58,11111222 
WAVCIS,ioos:station:WAVCIS:CSI06:1,2016-02-09T02:00:00Z,28.8667,-90.4833,1020.6,11111222 
WAVCIS,ioos:station:WAVCIS:CSI06:1,2016-02-09T03:00:00Z,28.8667,-90.4833,1021.44,11111222 
WAVCIS,ioos:station:WAVCIS:CSI06:1,2016-02-09T04:00:00Z,28.8667,-90.4833,1021.94,11111222 
WAVCIS,ioos:station:WAVCIS:CSI06:1,2016-02-09T05:00:00Z,28.8667,-90.4833,1022.23,11111222 
WAVCIS,ioos:station:WAVCIS:CSI06:1,2016-02-09T06:00:00Z,28.8667,-90.4833,1022.26,11111222 
WAVCIS,ioos:station:WAVCIS:CSI06:1,2016-02-09T07:00:00Z,28.8667,-90.4833,1022.12,11111222 
WAVCIS,ioos:station:WAVCIS:CSI06:1,2016-02-09T08:00:00Z,28.8667,-90.4833,1021.95,11111222 
WAVCIS,ioos:station:WAVCIS:CSI06:1,2016-02-09T09:00:00Z,28.8667,-90.4833,1021.79,11111222 
WAVCIS,ioos:station:WAVCIS:CSI06:1,2016-02-09T10:00:00Z,28.8667,-90.4833,1021.34,11111222 
WAVCIS,ioos:station:WAVCIS:CSI06:1,2016-02-09T11:00:00Z,28.8667,-90.4833,1021.76,11111222 
WAVCIS,ioos:station:WAVCIS:CSI06:1,2016-02-09T12:00:00Z,28.8667,-90.4833,1022.48,11111222 
WAVCIS,ioos:station:WAVCIS:CSI06:1,2016-02-09T13:00:00Z,28.8667,-90.4833,1023.07,11111222 
WAVCIS,ioos:station:WAVCIS:CSI06:1,2016-02-09T14:00:00Z,28.8667,-90.4833,1023.76,11111222 
WAVCIS,ioos:station:WAVCIS:CSI06:1,2016-02-09T15:00:00Z,28.8667,-90.4833,1024.53,11111222 
WAVCIS,ioos:station:WAVCIS:CSI06:1,2016-02-09T16:00:00Z,28.8667,-90.4833,1024.72,11111222 
WAVCIS,ioos:station:WAVCIS:CSI06:1,2016-02-09T17:00:00Z,28.8667,-90.4833,1024.1,11111222 
WAVCIS,ioos:station:WAVCIS:CSI06:1,2016-02-09T18:00:00Z,28.8667,-90.4833,1023.09,11111222 
WAVCIS,ioos:station:WAVCIS:CSI06:1,2016-02-09T19:00:00Z,28.8667,-90.4833,1022.03,11111222 
WAVCIS,ioos:station:WAVCIS:CSI06:1,2016-02-09T20:00:00Z,28.8667,-90.4833,1021.39,11111222 
WAVCIS,ioos:station:WAVCIS:CSI06:1,2016-02-09T21:00:00Z,28.8667,-90.4833,1021.36,11111222 
WAVCIS,ioos:station:WAVCIS:CSI06:1,2016-02-09T22:00:00Z,28.8667,-90.4833,1021.02,11111222 
WAVCIS,ioos:station:WAVCIS:CSI06:1,2016-02-09T23:00:00Z,28.8667,-90.4833,1021.12,11111222 
WAVCIS,ioos:station:WAVCIS:CSI06:1,2016-02-10T00:00:00Z,28.8667,-90.4833,1021.61,11111222 
WAVCIS,ioos:station:WAVCIS:CSI06:1,2016-02-10T01:00:00Z,28.8667,-90.4833,1022.59,11111222 
WAVCIS,ioos:station:WAVCIS:CSI06:1,2016-02-10T02:00:00Z,28.8667,-90.4833,1022.95,11111222 
WAVCIS,ioos:station:WAVCIS:CSI06:1,2016-02-10T03:00:00Z,28.8667,-90.4833,1023.45,11111222 
WAVCIS,ioos:station:WAVCIS:CSI06:1,2016-02-10T04:00:00Z,28.8667,-90.4833,1023.89,11111222 
WAVCIS,ioos:station:WAVCIS:CSI06:1,2016-02-10T05:00:00Z,28.8667,-90.4833,1024.4,11111222 
WAVCIS,ioos:station:WAVCIS:CSI06:1,2016-02-10T06:00:00Z,28.8667,-90.4833,1024.57,11111222 
WAVCIS,ioos:station:WAVCIS:CSI06:1,2016-02-10T07:00:00Z,28.8667,-90.4833,1024.75,11111222 
WAVCIS,ioos:station:WAVCIS:CSI06:1,2016-02-10T08:00:00Z,28.8667,-90.4833,1025.01,11111222 
WAVCIS,ioos:station:WAVCIS:CSI06:1,2016-02-10T09:00:00Z,28.8667,-90.4833,1025.12,11111222 
WAVCIS,ioos:station:WAVCIS:CSI06:1,2016-02-10T10:00:00Z,28.8667,-90.4833,1025.45,11111222 
WAVCIS,ioos:station:WAVCIS:CSI06:1,2016-02-10T11:00:00Z,28.8667,-90.4833,1025.99,11111222 
WAVCIS,ioos:station:WAVCIS:CSI06:1,2016-02-10T12:00:00Z,28.8667,-90.4833,1026.73,11111222 
WAVCIS,ioos:station:WAVCIS:CSI06:1,2016-02-10T13:00:00Z,28.8667,-90.4833,1027.69,11111222 
WAVCIS,ioos:station:WAVCIS:CSI06:1,2016-02-10T14:00:00Z,28.8667,-90.4833,1028.56,11111222 
WAVCIS,ioos:station:WAVCIS:CSI06:1,2016-02-10T15:00:00Z,28.8667,-90.4833,1029.31,11111222 
WAVCIS,ioos:station:WAVCIS:CSI06:1,2016-02-10T16:00:00Z,28.8667,-90.4833,1029.72,11111222 
WAVCIS,ioos:station:WAVCIS:CSI06:1,2016-02-10T17:00:00Z,28.8667,-90.4833,1029.77,11111222 
WAVCIS,ioos:station:WAVCIS:CSI06:1,2016-02-10T18:00:00Z,28.8667,-90.4833,1029.31,11111222 
WAVCIS,ioos:station:WAVCIS:CSI06:1,2016-02-10T19:00:00Z,28.8667,-90.4833,1028.8,11111222 
WAVCIS,ioos:station:WAVCIS:CSI06:1,2016-02-10T20:00:00Z,28.8667,-90.4833,1028.28,11111222 
WAVCIS,ioos:station:WAVCIS:CSI06:1,2016-02-10T21:00:00Z,28.8667,-90.4833,1027.5,11111222 
WAVCIS,ioos:station:WAVCIS:CSI06:1,2016-02-10T22:00:00Z,28.8667,-90.4833,1027.3,11111222 
WAVCIS,ioos:station:WAVCIS:CSI06:1,2016-02-10T23:00:00Z,28.8667,-90.4833,1027.14,11111222 
WAVCIS,ioos:station:WAVCIS:CSI06:1,2016-02-11T00:00:00Z,28.8667,-90.4833,1026.82,11111222 
WAVCIS,ioos:station:WAVCIS:CSI06:1,2016-02-11T01:00:00Z,28.8667,-90.4833,1026.84,11111222 
WAVCIS,ioos:station:WAVCIS:CSI06:1,2016-02-11T02:00:00Z,28.8667,-90.4833,1026.64,11111222 
WAVCIS,ioos:station:WAVCIS:CSI06:1,2016-02-11T03:00:00Z,28.8667,-90.4833,1026.41,11111222 
WAVCIS,ioos:station:WAVCIS:CSI06:1,2016-02-11T04:00:00Z,28.8667,-90.4833,1026.39,11111222 
WAVCIS,ioos:station:WAVCIS:CSI06:1,2016-02-11T05:00:00Z,28.8667,-90.4833,1025.84,11111222 
WAVCIS,ioos:station:WAVCIS:CSI06:1,2016-02-11T06:00:00Z,28.8667,-90.4833,1025.35,11111222 
WAVCIS,ioos:station:WAVCIS:CSI06:1,2016-02-11T07:00:00Z,28.8667,-90.4833,1024.75,11111222 
WAVCIS,ioos:station:WAVCIS:CSI06:1,2016-02-11T08:00:00Z,28.8667,-90.4833,1024.49,11111222 
WAVCIS,ioos:station:WAVCIS:CSI06:1,2016-02-11T09:00:00Z,28.8667,-90.4833,1023.85,11111222 
WAVCIS,ioos:station:WAVCIS:CSI06:1,2016-02-11T10:00:00Z,28.8667,-90.4833,1023.96,11111222 
WAVCIS,ioos:station:WAVCIS:CSI06:1,2016-02-11T11:00:00Z,28.8667,-90.4833,1024.03,11111222 
WAVCIS,ioos:station:WAVCIS:CSI06:1,2016-02-11T12:00:00Z,28.8667,-90.4833,1024.23,11111222 
WAVCIS,ioos:station:WAVCIS:CSI06:1,2016-02-11T13:00:00Z,28.8667,-90.4833,1024.66,11111222 
WAVCIS,ioos:station:WAVCIS:CSI06:1,2016-02-11T14:00:00Z,28.8667,-90.4833,1024.99,11111222 
WAVCIS,ioos:station:WAVCIS:CSI06:1,2016-02-11T15:00:00Z,28.8667,-90.4833,1025.42,11111222 
WAVCIS,ioos:station:WAVCIS:CSI06:1,2016-02-11T16:00:00Z,28.8667,-90.4833,1025.63,11111222 
WAVCIS,ioos:station:WAVCIS:CSI06:1,2016-02-11T17:00:00Z,28.8667,-90.4833,1025.52,11111222 
WAVCIS,ioos:station:WAVCIS:CSI06:1,2016-02-11T18:00:00Z,28.8667,-90.4833,1024.76,11111222 
WAVCIS,ioos:station:WAVCIS:CSI06:1,2016-02-11T19:00:00Z,28.8667,-90.4833,1024.13,11111222 
WAVCIS,ioos:station:WAVCIS:CSI06:1,2016-02-11T20:00:00Z,28.8667,-90.4833,1023.21,11111222 
WAVCIS,ioos:station:WAVCIS:CSI06:1,2016-02-11T21:00:00Z,28.8667,-90.4833,1022.93,11111222 
WAVCIS,ioos:station:WAVCIS:CSI06:1,2016-02-11T22:00:00Z,28.8667,-90.4833,1023.13,11111222 